Hourly Weather Lukovets'-Zhurivs'kyi

Today, 6 May, Thursday

Time Temperature Precipitation Wind Pressure Humidity
00:00 +11°C° 0.4 mm 6 mps 729 mmHg 74%
01:00 +9°C° 0.4 mm 6 mps 730 mmHg 81%
02:00 +8°C° 0.4 mm 7 mps 731 mmHg 87%
03:00 +7°C° 0 mm 6 mps 731 mmHg 88%
04:00 +5°C° 0 mm 6 mps 732 mmHg 88%
05:00 +5°C° 0 mm 5 mps 733 mmHg 89%
06:00 +6°C° 0 mm 5 mps 733 mmHg 83%
07:00 +5°C° 0 mm 6 mps 734 mmHg 78%
08:00 +7°C° 0 mm 6 mps 735 mmHg 72%
09:00 +8°C° 0 mm 5 mps 735 mmHg 65%
10:00 +10°C° 0 mm 5 mps 735 mmHg 58%
11:00 +12°C° 0 mm 4 mps 735 mmHg 51%
12:00 +13°C° 0 mm 4 mps 735 mmHg 50%
13:00 +13°C° 0 mm 3 mps 735 mmHg 49%
14:00 +14°C° 0 mm 3 mps 735 mmHg 48%
15:00 +14°C° 0 mm 3 mps 735 mmHg 50%
16:00 +14°C° 0 mm 3 mps 734 mmHg 52%
17:00 +16°C° 0 mm 3 mps 734 mmHg 54%
18:00 +13°C° 0 mm 3 mps 734 mmHg 58%
19:00 +12°C° 0 mm 2 mps 734 mmHg 61%
20:00 +10°C° 0 mm 2 mps 734 mmHg 65%
21:00 +9°C° 0 mm 2 mps 733 mmHg 65%
22:00 +9°C° 0 mm 2 mps 733 mmHg 65%
23:00 +9°C° 0 mm 2 mps 733 mmHg 65%

Tomorrow, 7 May, Friday

Time Temperature Precipitation Wind Pressure Humidity
00:00 +9°C° 0 mm 2 mps 732 mmHg 67%
01:00 +9°C° 0 mm 3 mps 732 mmHg 69%
02:00 +9°C° 0 mm 3 mps 731 mmHg 70%
03:00 +10°C° 0 mm 3 mps 731 mmHg 70%
04:00 +10°C° 0 mm 3 mps 731 mmHg 69%
05:00 +11°C° 0 mm 3 mps 730 mmHg 69%
06:00 +11°C° 0.1 mm 3 mps 731 mmHg 72%
07:00 +12°C° 0.1 mm 3 mps 731 mmHg 75%
08:00 +12°C° 0.1 mm 3 mps 731 mmHg 78%
09:00 +14°C° 0.1 mm 4 mps 731 mmHg 73%
10:00 +15°C° 0.1 mm 4 mps 732 mmHg 68%
11:00 +17°C° 0.1 mm 4 mps 732 mmHg 64%
12:00 +17°C° 0.3 mm 4 mps 732 mmHg 64%
13:00 +17°C° 0.3 mm 4 mps 732 mmHg 64%
14:00 +18°C° 0.3 mm 4 mps 732 mmHg 64%
15:00 +17°C° 0.1 mm 4 mps 732 mmHg 66%
16:00 +17°C° 0.1 mm 4 mps 732 mmHg 67%
17:00 +17°C° 0.1 mm 3 mps 732 mmHg 68%
18:00 +14°C° 0.2 mm 3 mps 733 mmHg 74%
19:00 +13°C° 0.2 mm 3 mps 733 mmHg 79%
20:00 +11°C° 0.2 mm 3 mps 734 mmHg 84%
21:00 +11°C° 0 mm 3 mps 734 mmHg 85%
22:00 +12°C° 0 mm 2 mps 734 mmHg 86%
23:00 +11°C° 0 mm 1 mps 734 mmHg 88%

Day after tomorrow, 8 May, Saturday

Time Temperature Precipitation Wind Pressure Humidity
00:00 +11°C° 0 mm 1 mps 734 mmHg 88%
01:00 +10°C° 0 mm 1 mps 735 mmHg 88%
02:00 +10°C° 0 mm 1 mps 735 mmHg 89%
03:00 +10°C° 0 mm 1 mps 735 mmHg 89%
04:00 +10°C° 0 mm 1 mps 735 mmHg 89%
05:00 +10°C° 0 mm 1 mps 735 mmHg 89%
06:00 +10°C° 0 mm 1 mps 736 mmHg 86%
07:00 +11°C° 0 mm 1 mps 736 mmHg 83%
08:00 +12°C° 0 mm 2 mps 737 mmHg 80%
09:00 +11°C° 0 mm 3 mps 737 mmHg 80%
10:00 +10°C° 0 mm 4 mps 737 mmHg 80%
11:00 +9°C° 0 mm 5 mps 738 mmHg 81%
12:00 +8°C° 0.1 mm 4 mps 739 mmHg 83%
13:00 +6°C° 0.1 mm 4 mps 739 mmHg 85%
14:00 +5°C° 0.1 mm 4 mps 740 mmHg 88%
15:00 +5°C° 0 mm 3 mps 740 mmHg 87%
16:00 +6°C° 0 mm 2 mps 741 mmHg 86%
17:00 +7°C° 0 mm 1 mps 741 mmHg 84%
18:00 +7°C° 0.1 mm 1 mps 741 mmHg 86%
19:00 +6°C° 0.1 mm 2 mps 741 mmHg 88%
20:00 +6°C° 0.1 mm 2 mps 741 mmHg 89%
21:00 +6°C° 0 mm 2 mps 741 mmHg 89%
22:00 +6°C° 0 mm 2 mps 741 mmHg 89%
23:00 +6°C° 0 mm 2 mps 741 mmHg 89%

9 May, Sunday

Time Temperature Precipitation Wind Pressure Humidity
00:00 +6°C° 0 mm 2 mps 741 mmHg 91%
01:00 +5°C° 0 mm 2 mps 741 mmHg 92%
02:00 +4°C° 0 mm 2 mps 741 mmHg 94%
03:00 +4°C° 0 mm 2 mps 741 mmHg 94%
04:00 +4°C° 0 mm 2 mps 741 mmHg 94%
05:00 +4°C° 0 mm 2 mps 740 mmHg 95%
06:00 +5°C° 0 mm 3 mps 740 mmHg 90%
07:00 +7°C° 0 mm 4 mps 740 mmHg 85%
08:00 +9°C° 0 mm 5 mps 740 mmHg 80%

10 May, Monday

Time Temperature Precipitation Wind Pressure Humidity

11 May, Tuesday

Time Temperature Precipitation Wind Pressure Humidity
Show more

We Need Your Consent

Meteoprog and our Service Providers may store and access personal data such as cookies, device identifiers or other similar technologies on your device and process such data to personalise content and ads, as well as provide social media features and to analyse the traffic.

  • Store and/or access information on your device

    Cookies, device identifiers or other information can be stored or accessed on your device for the purposes indicated above.

  • Personalised ads and content, ad and content measurement, audience insights, and products development

    Ads and content can be personalised based on a profile. More data can be added to better personalise ads and content. Ad and content performance can be measured. Insights about the audience who saw the ads and content can be derived. Such data can be used to develop or improve user’s experience, systems and software.

By clicking ‘I Agree’ you will allow the use of indicated cookies, device identifiers, web beacons or other similar technologies. Your settings can be changed in the browser on your device.

For certain purposes, legitimate interests may be relied on, rather than consent. You can read more about this in our Privacy and Cookie Policy.